Observations for Trim Market St
| Time | AQI | Temp °C | Hum % | Pres Pa | CO μg/m³ | H₂S μg/m³ | NO μg/m³ | NO₂ μg/m³ | O₃ μg/m³ | SO₂ μg/m³ | PM1 μg/m³ | PM2.5 μg/m³ | PM10 μg/m³ |
|---|---|---|---|---|---|---|---|---|---|---|---|---|---|
| Thursday 13 August 2026 | |||||||||||||
| 23:42 | 2 | 24.9 | 64 | 57,328 | 0 | 5.43 | 0.89 | 30.31 | 44.45 | 0 | 4.99 | 6.31 | 8.86 |
| 23:40 | 2 | 24.9 | 64 | 57,386 | 0 | 6.25 | 0.88 | 15.54 | 52.38 | 0 | 2.14 | 4.84 | 8.19 |
| 23:38 | 2 | 25 | 64 | 57,445 | 0 | 4.57 | 0.87 | 19.59 | 49.3 | 0 | 4.28 | 5.84 | 9.53 |
| 23:33 | 2 | 25 | 63 | 57,510 | 0 | 2.56 | 0.86 | 18.81 | 50.74 | 0 | 2.85 | 4.87 | 6.86 |
| 23:29 | 2 | 25.1 | 63 | 57,577 | 0 | 7.02 | 0.84 | 22.5 | 51.89 | 0 | 2.85 | 5.39 | 8.87 |
| 23:27 | 2 | 25.1 | 62 | 57,611 | 0 | 3.08 | 0.82 | 18.91 | 50.53 | 0 | 2.85 | 4.41 | 6.86 |
| 23:26 | 2 | 25.1 | 62 | 57,626 | 0 | 2.79 | 0.81 | 17.4 | 51.21 | 0 | 3.56 | 5.91 | 8.88 |
| 23:25 | 2 | 25.1 | 62 | 57,639 | 0 | 5.82 | 0.83 | 22.14 | 51.15 | 0 | 1.43 | 3.43 | 4.83 |
| 23:24 | 2 | 25.1 | 62 | 57,650 | 0 | 3.96 | 0.83 | 18.8 | 50.25 | 0 | 2.14 | 3.93 | 5.51 |
| 23:23 | 2 | 25.1 | 62 | 57,664 | 0 | 4.92 | 0.81 | 21.19 | 51.24 | 0 | 2.14 | 4.43 | 6.85 |
| 23:21 | 2 | 25.2 | 62 | 57,689 | 0 | 2.49 | 0.81 | 18.5 | 50.75 | 0 | 1.43 | 3.94 | 6.18 |
| 23:20 | 2 | 25.2 | 62 | 57,699 | 0 | 1.22 | 0.79 | 15.78 | 54.17 | 0 | 2.85 | 5.44 | 7.53 |
| 23:18 | 2 | 25.2 | 61 | 57,706 | 0 | 3.29 | 0.78 | 19.04 | 51.21 | 0 | 2.14 | 4.96 | 7.53 |
| 23:16 | 2 | 25.2 | 61 | 57,720 | 0 | 4.46 | 0.76 | 20.32 | 52.26 | 0 | 3.56 | 5.97 | 8.21 |
| 23:14 | 2 | 25.2 | 61 | 57,735 | 0 | 3.48 | 0.77 | 19.81 | 50.65 | 0 | 2.85 | 4.48 | 8.21 |
| 23:10 | 2 | 25.3 | 60 | 57,762 | 0 | 2.23 | 0.78 | 18.49 | 51.83 | 0 | 0.71 | 5 | 6.85 |
| 23:08 | 2 | 25.3 | 60 | 57,773 | 0 | 2.46 | 0.77 | 20.23 | 50.29 | 0 | 2.14 | 3.51 | 4.79 |
| 23:03 | 2 | 25.4 | 60 | 57,790 | 0 | 3.36 | 0.74 | 19.76 | 51.87 | 0 | 1.43 | 4.04 | 5.47 |
| 23:02 | 2 | 25.4 | 60 | 57,793 | 0 | 0.79 | 0.73 | 17.44 | 51.93 | 0 | 1.43 | 4.55 | 6.15 |
| 23:01 | 2 | 25.4 | 60 | 57,796 | 0 | 1.4 | 0.74 | 16.37 | 52.05 | 0 | 1.43 | 3.04 | 4.09 |